User: anonymous   Login
Location: Unspecified
(0.0000°N, 0.0000°E)
Time: 01:46:21
(UTC+00:00)
Language:

Vanguard 2 Rocket - Orbit

View from above orbital plane
View from above orbital plane
View from above satellite
View from above satellite

Ground track
Ground track

The orbit data is extracted from the following two-line orbital elements,

1    12U 59001B   18170.60155161 +.00000203 +00000-0 +10102-3 0  9992
2    12 032.9075 020.8622 1667542 204.2726 146.9527 11.44242533196475
Epoch (UTC): 19 June 2018 14:26:14
Eccentricity: 0.1667542
inclination: 32.9075°
perigee height: 553 km
apogee height: 3328 km
right ascension of ascending node: 20.8622°
argument of perigee: 204.2726°
revolutions per day: 11.44242533
mean anomaly at epoch: 146.9527°
orbit number at epoch: 19647

The dashed part of the orbit path shows where the satellite is in the earth's shadow,  

DLR